Location: Mahannah Oil Field
(37.4664°N, 96.6003°W)
Time: 03:55:57
(UTC+00:00)

X-37B - Pass Details

Date: 27 November 2020
Orbit: 383 x 391 km, 45.1° (Epoch: 22 January)

Event Time Altitude Azimuth Distance (km) Brightness Sun altitude
Rises 01:04:40 0° 248° (WSW) 2,252 5.8 -22.5°
Reaches altitude 10° 01:06:44 10° 251° (WSW) 1,403 4.5 -22.9°
Enters shadow 01:08:54 39° 266° (W) 596 2.0 -23.3°
